Hibbing, MN

1:16 AM CDT on March 26, 2017 (GMT -0500)
Chisholm-hibbing

Weather History for KHIB - July, 2013

Change the Weather History Date:

Thursday, July 4, 2013

  Actual Average Record
Temperature  
Mean Temperature 65 °F -  
Max Temperature 86 °F 76 °F 90 °F (1988)
Min Temperature 46 °F 52 °F 35 °F (1972)
Growing Degree Days 15 (Base 50)    
Moisture  
Dew Point 53 °F    
Average Humidity 63    
Maximum Humidity 93    
Minimum Humidity 34    
Precipitation  
Precipitation 0.00 in - - ()
Sea Level Pressure  
Sea Level Pressure 29.90 in    
Wind  
Wind Speed 3 mph (South)    
Max Wind Speed 12 mph    
Max Gust Speed 20 mph    
Visibility 9 miles    
Events      
Averages and records for this station are not official NWS values.
T = Trace of Precipitation, MM = Missing Value Source: NWS Daily Summary

Daily Weather History Graph

Daily Weather History Graph

Search for Another Location

Airport or City:

Trip Planner

Search our weather history database for the weather conditions in past years. The results will help you decide how hot, cold, wet, or windy it might be!

Date:

Astronomy

Jul. 04, 2013 Rise Set
Actual Time 5:20 AM CDT 9:10 PM CDT
Civil Twilight 4:40 AM CDT 9:50 PM CDT
Nautical Twilight 3:46 AM CDT 10:44 PM CDT
Astronomical Twilight 2:26 AM CDT 12:04 AM CDT
Moon 2:44 AM CDT (7/4) 6:10 PM CDT (7/4)
Length of Visible Light 17h 09m
Length of Day
15h 49m
Waning Crescent, 11% of the Moon is Illuminated
Jul 4
Waning Crescent
Jul 8
New
Jul 15
First Quarter
Jul 22
Full
Jul 29
Last Quarter

Hourly Weather History & Observations

Time (CDT) Temp. Heat Index Dew Point Humidity Pressure Visibility Wind Dir Wind Speed Gust Speed Precip Events Conditions
12:53 AM 54.0 °F - 51.1 °F 90% 29.96 in 10.0 mi Calm Calm - N/A   Clear
1:53 AM 52.0 °F - 50.0 °F 93% 29.95 in 10.0 mi NW 3.5 mph - N/A   Clear
2:53 AM 51.1 °F - 48.0 °F 89% 29.95 in 10.0 mi Calm Calm - N/A   Clear
3:53 AM 50.0 °F - 48.0 °F 93% 29.95 in 3.0 mi Calm Calm - N/A   Clear
4:53 AM 48.0 °F - 46.0 °F 93% 29.95 in 10.0 mi Calm Calm - N/A   Clear
5:18 AM 46.4 °F - 44.6 °F 93% 29.95 in 1.8 mi Calm Calm - N/A   Clear
5:31 AM 48.2 °F - 46.4 °F 93% 29.95 in 3.0 mi Calm Calm - N/A   Clear
5:53 AM 48.9 °F - 46.0 °F 90% 29.96 in 10.0 mi Calm Calm - N/A   Clear
6:53 AM 54.0 °F - 51.1 °F 90% 29.95 in 10.0 mi Calm Calm - N/A   Clear
7:53 AM 60.1 °F - 51.1 °F 72% 29.94 in 10.0 mi Calm Calm - N/A   Clear
8:53 AM 66.9 °F - 54.0 °F 63% 29.94 in 10.0 mi South 3.5 mph - N/A   Clear
9:53 AM 73.9 °F - 55.9 °F 53% 29.92 in 10.0 mi SSE 4.6 mph - N/A   Clear
10:53 AM 78.1 °F - 54.0 °F 43% 29.91 in 10.0 mi Variable 5.8 mph - N/A   Clear
11:53 AM 80.1 °F - 51.1 °F 36% 29.89 in 10.0 mi SSE 8.1 mph - N/A   Clear
12:53 PM 82.0 °F 81.4 °F 55.0 °F 39% 29.88 in 10.0 mi Variable 5.8 mph - N/A   Scattered Clouds
1:53 PM 84.0 °F 83.0 °F 55.9 °F 38% 29.87 in 10.0 mi SSW 11.5 mph - N/A   Scattered Clouds
2:53 PM 84.0 °F 82.9 °F 55.0 °F 37% 29.85 in 10.0 mi SW 9.2 mph - N/A   Mostly Cloudy
3:53 PM 84.9 °F 83.6 °F 55.0 °F 36% 29.85 in 10.0 mi SW 9.2 mph 17.3 mph N/A   Scattered Clouds
4:53 PM 84.9 °F 83.3 °F 54.0 °F 34% 29.85 in 10.0 mi WSW 10.4 mph 19.6 mph N/A   Partly Cloudy
5:53 PM 82.9 °F 82.1 °F 55.9 °F 39% 29.85 in 10.0 mi SW 6.9 mph - N/A   Clear
6:53 PM 82.9 °F 82.4 °F 57.0 °F 41% 29.84 in 10.0 mi SSW 6.9 mph 16.1 mph N/A   Clear
7:53 PM 81.0 °F 81.0 °F 57.0 °F 44% 29.84 in 10.0 mi South 5.8 mph - N/A   Clear
8:53 PM 75.9 °F - 57.9 °F 54% 29.84 in 10.0 mi SSE 3.5 mph - N/A   Clear
9:53 PM 73.0 °F - 57.9 °F 59% 29.84 in 10.0 mi SSE 5.8 mph - N/A   Partly Cloudy
10:53 PM 71.1 °F - 57.0 °F 61% 29.84 in 10.0 mi SSE 5.8 mph - N/A   Clear
11:53 PM 69.1 °F - 57.0 °F 65% 29.84 in 10.0 mi Calm Calm - N/A   Clear